ボク彗星

C/2022 U3 ( Bok )

English version
Home page
Updated on February 29, 2024

---------------------------------------------------------------------

・ プロフィール

発見日 2022年10月31日
発見光度 19.6等
発見者 Hannes Groeller and Cassandra Lejoly (Bok NEO Survey)

・ 写真集

・ 軌道要素

Epoch 2024 Mar. 31.0 TT = JDT 2460400.5
T 2024 July 28.30002 TT                                 Rudenko
q   4.8264948            (2000.0)            P               Q
z  -0.0005523      Peri.  189.07997     -0.17918646     -0.81338789
 +/-0.0000020      Node   272.78441     +0.93384302     +0.03638616
e   1.0026656      Incl.   33.64813     +0.30956327     -0.58058263
>From 609 observations 2021 June 30-2024 Feb. 24, mean residual 0".5.

・ 光度変化

        m1 = 3.0 + 5 logΔ + 15.0 log r

---------------------------------------------------------------------

軌道要素はM.P.E.C. 2024-D126に掲載されたものです。
光度グラフはComet for Windowsで作成したものです。

---------------------------------------------------------------------

Copyright(C) Seiichi Yoshida (comet@aerith.net). All rights reserved.